Time,TemperatureF,DewpointF,PressureIn,WindDirection,WindDirectionDegrees,WindSpeedMPH,WindSpeedGustMPH,Humidity,HourlyPrecipIn,Conditions,Clouds,dailyrainin,SolarRadiationWatts/m^2,SoftwareType,DateUTC
2013-06-01 06:02:00,56.7,51.4,29.73,North,0,1.3,1.3,83,-99.99,,,0.00,42,,2013-06-01 04:02:00,
2013-06-01 06:07:00,56.7,51.4,29.73,North,0,2.2,2.2,83,-99.99,,,0.00,,,2013-06-01 04:07:00,
2013-06-01 06:12:00,56.7,51.4,29.73,North,0,1.3,1.3,83,-99.99,,,0.00,,,2013-06-01 04:12:00,
2013-06-01 06:17:00,56.7,51.4,29.73,North,0,0.4,0.0,83,-99.99,,,0.00,,,2013-06-01 04:17:00,
2013-06-01 06:22:00,56.7,51.4,29.73,North,0,0.0,0.0,83,-99.99,,,0.00,,,2013-06-01 04:22:00,
2013-06-01 06:27:00,56.7,51.4,29.73,NW,315,0.0,0.0,83,-99.99,,,0.00,,,2013-06-01 04:27:00,
2013-06-01 06:32:00,56.7,51.4,29.73,NW,315,0.0,0.0,83,-99.99,,,0.00,,,2013-06-01 04:32:00,
2013-06-01 06:37:00,56.7,51.4,29.73,NNW,337,0.0,0.0,83,-99.99,,,0.00,,,2013-06-01 04:37:00,
2013-06-01 06:42:00,56.7,51.4,29.73,North,0,0.0,0.0,83,-99.99,,,0.00,,,2013-06-01 04:42:00,
2013-06-01 06:47:00,66.6,56.3,29.73,North,0,0.0,0.0,70,-99.99,,,0.00,,,2013-06-01 04:47:00,
2013-06-01 06:52:00,67.5,57.2,29.73,North,0,0.0,0.0,70,-99.99,,,0.00,,,2013-06-01 04:52:00,
2013-06-01 06:57:00,69.4,58.8,29.73,North,0,0.0,0.0,69,-99.99,,,0.00,,,2013-06-01 04:57:00,
2013-06-01 07:02:00,67.1,56.5,29.73,North,0,0.0,0.0,69,0.00,,,0.00,,,2013-06-01 05:02:00,
2013-06-01 07:07:00,59.2,53.6,29.73,North,0,0.0,0.0,82,0.00,,,0.00,,,2013-06-01 05:07:00,
2013-06-01 07:12:00,59.2,53.6,29.73,NE,45,0.0,0.0,82,0.00,,,0.00,,,2013-06-01 05:12:00,
2013-06-01 07:17:00,59.2,53.6,29.73,NE,45,0.0,0.0,82,0.00,,,0.00,,,2013-06-01 05:17:00,
2013-06-01 07:22:00,59.2,53.6,29.76,NE,45,0.0,0.0,82,0.00,,,0.00,,,2013-06-01 05:22:00,
2013-06-01 07:27:00,61.5,55.9,29.76,NE,45,0.0,0.0,82,0.00,,,0.00,,,2013-06-01 05:27:00,
2013-06-01 07:32:00,61.9,55.9,29.76,North,0,0.0,0.0,81,0.00,,,0.00,,,2013-06-01 05:32:00,
2013-06-01 07:37:00,62.2,56.3,29.76,North,0,0.0,0.0,81,0.00,,,0.00,,,2013-06-01 05:37:00,
2013-06-01 07:42:00,62.2,56.3,29.76,South,180,0.0,0.0,81,0.00,,,0.00,,,2013-06-01 05:42:00,
2013-06-01 07:47:00,62.2,56.3,29.76,South,180,0.0,0.0,81,0.00,,,0.00,,,2013-06-01 05:47:00,
2013-06-01 07:52:00,62.2,56.3,29.76,South,180,0.0,0.0,81,0.00,,,0.00,,,2013-06-01 05:52:00,
2013-06-01 07:57:00,62.2,56.3,29.76,South,180,0.0,0.0,81,0.00,,,0.00,,,2013-06-01 05:57:00,
2013-06-01 08:02:00,62.2,56.3,29.76,South,180,0.0,0.0,81,0.00,,,0.00,,,2013-06-01 06:02:00,
2013-06-01 08:07:00,62.2,56.3,29.76,South,180,0.4,0.0,81,0.00,,,0.00,,,2013-06-01 06:07:00,
2013-06-01 08:12:00,64.8,57.6,29.76,South,180,0.0,0.0,78,0.00,,,0.00,,,2013-06-01 06:12:00,
2013-06-01 08:17:00,64.8,57.2,29.76,South,180,0.0,0.0,77,0.00,,,0.00,,,2013-06-01 06:17:00,
2013-06-01 08:22:00,64.2,56.8,29.76,SW,225,0.0,0.0,77,0.00,,,0.00,,,2013-06-01 06:22:00,
2013-06-01 08:27:00,65.1,57.2,29.76,South,180,0.0,0.4,76,0.00,,,0.00,,,2013-06-01 06:27:00,
2013-06-01 08:32:00,66.4,57.7,29.76,South,180,0.4,1.7,74,0.00,,,0.00,,,2013-06-01 06:32:00,
2013-06-01 08:37:00,66.7,57.7,29.76,SE,135,0.4,0.0,73,0.00,,,0.00,,,2013-06-01 06:37:00,
2013-06-01 08:42:00,66.7,57.7,29.76,SSW,202,0.8,0.8,73,0.00,,,0.00,,,2013-06-01 06:42:00,
2013-06-01 08:47:00,66.7,57.7,29.76,SW,225,0.4,0.8,73,0.00,,,0.00,,,2013-06-01 06:47:00,
2013-06-01 08:52:00,64.8,56.8,29.76,SSW,202,0.4,0.0,76,0.00,,,0.00,,,2013-06-01 06:52:00,
2013-06-01 08:57:00,64.8,56.8,29.76,SW,225,0.0,0.0,76,0.00,,,0.00,32,,2013-06-01 06:57:00,
2013-06-01 09:02:00,65.5,57.6,29.76,South,180,0.8,3.1,76,0.00,,,0.00,154,,2013-06-01 07:02:00,
2013-06-01 09:07:00,65.1,56.8,29.76,SE,135,1.3,4.0,75,0.00,,,0.00,238,,2013-06-01 07:07:00,
2013-06-01 09:12:00,65.1,56.8,29.76,South,180,0.8,1.7,75,0.00,,,0.00,238,,2013-06-01 07:12:00,
2013-06-01 09:17:00,72.0,61.9,29.76,SSE,157,1.3,3.5,71,0.00,,,0.00,99,,2013-06-01 07:17:00,
2013-06-01 09:22:00,72.9,62.4,29.76,South,180,2.2,4.9,70,0.00,,,0.00,497,,2013-06-01 07:22:00,
2013-06-01 09:27:00,73.6,62.6,29.76,SW,225,0.8,1.7,69,0.00,,,0.00,513,,2013-06-01 07:27:00,
2013-06-01 09:32:00,73.2,62.4,29.76,South,180,1.3,3.1,69,0.00,,,0.00,540,,2013-06-01 07:32:00,
2013-06-01 09:37:00,72.9,62.1,29.76,South,180,1.3,1.3,69,0.00,,,0.00,580,,2013-06-01 07:37:00,
2013-06-01 09:42:00,72.1,61.7,29.76,SSE,157,1.7,3.1,70,0.00,,,0.00,173,,2013-06-01 07:42:00,
2013-06-01 09:47:00,70.0,60.1,29.76,South,180,1.3,2.6,71,0.00,,,0.00,301,,2013-06-01 07:47:00,
2013-06-01 09:52:00,70.9,61.0,29.76,South,180,2.2,4.4,71,0.00,,,0.00,99,,2013-06-01 07:52:00,
2013-06-01 09:57:00,71.6,61.5,29.76,South,180,1.7,4.4,71,0.00,,,0.00,588,,2013-06-01 07:57:00,
2013-06-01 10:02:00,73.0,62.6,29.76,SW,225,0.4,2.6,70,0.00,,,0.00,587,,2013-06-01 08:02:00,
2013-06-01 10:07:00,72.3,62.2,29.76,South,180,1.7,1.7,71,0.00,,,0.00,604,,2013-06-01 08:07:00,
2013-06-01 10:12:00,73.2,63.1,29.76,SSE,157,1.3,1.7,71,0.00,,,0.00,653,,2013-06-01 08:12:00,
2013-06-01 10:17:00,73.8,63.3,29.76,SSW,202,0.8,1.7,70,0.00,,,0.00,654,,2013-06-01 08:17:00,
2013-06-01 10:22:00,73.9,63.5,29.76,SW,225,0.8,1.3,70,0.00,,,0.00,654,,2013-06-01 08:22:00,
2013-06-01 10:27:00,72.3,62.2,29.76,SSW,202,1.7,2.2,71,0.00,,,0.00,667,,2013-06-01 08:27:00,
2013-06-01 10:32:00,70.2,60.6,29.76,SSE,157,1.7,4.4,72,0.00,,,0.00,156,,2013-06-01 08:32:00,
2013-06-01 10:37:00,69.4,60.3,29.76,SSW,202,1.3,3.1,73,0.00,,,0.00,360,,2013-06-01 08:37:00,
2013-06-01 10:42:00,68.9,59.7,29.76,SW,225,1.3,3.5,73,0.00,,,0.00,120,,2013-06-01 08:42:00,
2013-06-01 10:47:00,68.7,59.5,29.76,South,180,1.7,4.4,73,0.00,,,0.00,199,,2013-06-01 08:47:00,
2013-06-01 10:52:00,68.4,59.7,29.76,South,180,2.2,2.2,74,0.00,,,0.00,158,,2013-06-01 08:52:00,
2013-06-01 10:57:00,70.3,61.2,29.76,SSW,202,1.3,5.3,73,0.00,,,0.00,173,,2013-06-01 08:57:00,
2013-06-01 11:02:00,72.7,63.0,29.76,South,180,2.2,3.1,72,0.00,,,0.00,203,,2013-06-01 09:02:00,
2013-06-01 11:07:00,72.5,62.4,29.76,SSE,157,1.3,4.4,71,0.00,,,0.00,163,,2013-06-01 09:07:00,
2013-06-01 11:12:00,72.0,62.4,29.76,North,0,1.7,2.6,72,0.00,,,0.00,154,,2013-06-01 09:12:00,
2013-06-01 11:17:00,71.4,61.9,29.76,SW,225,1.7,3.1,72,0.00,,,0.00,166,,2013-06-01 09:17:00,
2013-06-01 11:22:00,70.0,60.4,29.76,South,180,2.2,4.4,72,0.00,,,0.00,147,,2013-06-01 09:22:00,
2013-06-01 11:27:00,70.2,60.6,29.76,SSE,157,2.6,3.1,72,0.00,,,0.00,120,,2013-06-01 09:27:00,
2013-06-01 11:32:00,70.2,60.6,29.76,South,180,2.6,7.6,72,0.00,,,0.00,164,,2013-06-01 09:32:00,
2013-06-01 11:37:00,70.3,60.4,29.76,South,180,1.3,7.6,71,0.00,,,0.00,169,,2013-06-01 09:37:00,
2013-06-01 11:42:00,70.2,60.3,29.76,SE,135,2.2,5.3,71,0.00,,,0.00,159,,2013-06-01 09:42:00,
2013-06-01 11:47:00,70.0,60.4,29.76,South,180,0.8,1.3,72,0.00,,,0.00,154,,2013-06-01 09:47:00,
2013-06-01 11:52:00,69.6,60.4,29.76,South,180,0.8,1.3,73,0.00,,,0.00,132,,2013-06-01 09:52:00,
2013-06-01 11:57:00,70.2,61.0,29.76,South,180,0.4,0.8,73,0.00,,,0.00,150,,2013-06-01 09:57:00,
2013-06-01 12:02:00,73.4,63.3,29.76,SSW,202,0.4,0.4,71,0.00,,,0.00,164,,2013-06-01 10:02:00,
2013-06-01 12:07:00,74.8,64.2,29.76,South,180,0.4,0.4,70,0.00,,,0.00,146,,2013-06-01 10:07:00,
2013-06-01 12:12:00,76.1,65.5,29.76,North,0,0.4,0.8,70,0.00,,,0.00,136,,2013-06-01 10:12:00,
2013-06-01 12:17:00,74.8,64.2,29.76,East,90,0.8,0.8,70,0.00,,,0.00,118,,2013-06-01 10:17:00,
2013-06-01 12:22:00,73.9,63.9,29.76,South,180,0.4,1.7,71,0.00,,,0.00,138,,2013-06-01 10:22:00,
2013-06-01 12:27:00,72.9,62.8,29.76,SSW,202,0.4,0.8,71,0.00,,,0.00,168,,2013-06-01 10:27:00,
2013-06-01 12:32:00,72.3,62.2,29.76,WSW,247,0.8,2.2,71,0.00,,,0.00,188,,2013-06-01 10:32:00,
2013-06-01 12:37:00,73.2,63.1,29.76,West,270,0.4,2.2,71,0.00,,,0.00,190,,2013-06-01 10:37:00,
2013-06-01 12:42:00,72.3,62.2,29.76,South,180,2.2,4.4,71,0.00,,,0.00,184,,2013-06-01 10:42:00,
2013-06-01 12:47:00,72.7,62.6,29.76,West,270,2.2,4.4,71,0.00,,,0.00,182,,2013-06-01 10:47:00,
2013-06-01 12:52:00,72.5,62.4,29.76,South,180,1.7,3.1,71,0.00,,,0.00,176,,2013-06-01 10:52:00,
2013-06-01 12:57:00,72.0,61.9,29.76,South,180,0.4,1.3,71,0.00,,,0.00,176,,2013-06-01 10:57:00,
2013-06-01 13:02:00,72.3,62.2,29.76,ESE,112,1.7,6.2,71,0.00,,,0.00,173,,2013-06-01 11:02:00,
2013-06-01 13:07:00,72.0,61.9,29.76,SSW,202,0.4,1.3,71,0.00,,,0.00,165,,2013-06-01 11:07:00,
2013-06-01 13:12:00,71.2,61.3,29.76,SSE,157,1.3,1.3,71,0.00,,,0.00,164,,2013-06-01 11:12:00,
2013-06-01 13:17:00,72.0,61.9,29.76,SSE,157,0.4,0.4,71,0.00,,,0.00,168,,2013-06-01 11:17:00,
2013-06-01 13:22:00,71.1,61.5,29.76,South,180,1.3,2.2,72,0.00,,,0.00,167,,2013-06-01 11:22:00,
2013-06-01 13:27:00,71.2,61.7,29.76,South,180,0.0,0.4,72,0.00,,,0.00,162,,2013-06-01 11:27:00,
2013-06-01 13:32:00,71.6,61.5,29.76,South,180,0.4,0.4,71,0.00,,,0.00,149,,2013-06-01 11:32:00,
2013-06-01 13:37:00,71.1,61.2,29.76,South,180,0.8,1.3,71,0.00,,,0.00,155,,2013-06-01 11:37:00,
2013-06-01 13:42:00,70.9,61.0,29.76,SE,135,1.3,3.5,71,0.00,,,0.00,155,,2013-06-01 11:42:00,
2013-06-01 13:47:00,71.1,61.5,29.76,South,180,0.0,1.3,72,0.00,,,0.00,162,,2013-06-01 11:47:00,
2013-06-01 13:52:00,70.9,61.3,29.76,SW,225,0.0,0.0,72,0.00,,,0.00,149,,2013-06-01 11:52:00,
2013-06-01 13:57:00,70.9,61.3,29.76,South,180,0.0,0.0,72,0.00,,,0.00,151,,2013-06-01 11:57:00,
2013-06-01 14:02:00,70.5,61.0,29.76,West,270,0.4,1.3,72,0.00,,,0.00,135,,2013-06-01 12:02:00,
2013-06-01 14:07:00,70.0,60.4,29.76,SW,225,0.8,0.8,72,0.00,,,0.00,130,,2013-06-01 12:07:00,
2013-06-01 14:12:00,69.4,59.9,29.76,SW,225,0.4,0.8,72,0.00,,,0.00,141,,2013-06-01 12:12:00,
2013-06-01 14:17:00,70.0,60.4,29.76,South,180,1.3,1.3,72,0.00,,,0.00,108,,2013-06-01 12:17:00,
2013-06-01 14:22:00,69.8,60.3,29.76,South,180,0.0,0.0,72,0.00,,,0.00,106,,2013-06-01 12:22:00,
2013-06-01 14:27:00,69.1,59.9,29.76,South,180,0.0,0.8,73,0.00,,,0.00,127,,2013-06-01 12:27:00,
2013-06-01 14:32:00,68.4,59.4,29.76,South,180,0.4,2.2,73,0.00,,,0.00,104,,2013-06-01 12:32:00,
2013-06-01 14:37:00,67.1,58.5,29.76,South,180,0.8,0.8,74,0.00,,,0.00,58,,2013-06-01 12:37:00,
2013-06-01 14:42:00,66.4,58.1,29.73,SSE,157,0.0,0.0,75,0.00,,,0.00,38,,2013-06-01 12:42:00,
2013-06-01 14:47:00,63.7,55.9,29.73,West,270,0.4,0.8,76,0.00,,,0.00,38,,2013-06-01 12:47:00,
2013-06-01 14:52:00,64.6,56.8,29.73,South,180,0.0,0.4,76,0.00,,,0.00,52,,2013-06-01 12:52:00,
2013-06-01 14:57:00,65.7,57.7,29.73,South,180,0.0,0.4,76,0.00,,,0.00,99,,2013-06-01 12:57:00,
2013-06-01 15:02:00,66.4,58.5,29.76,SE,135,0.4,1.7,76,0.00,,,0.00,102,,2013-06-01 13:02:00,
2013-06-01 15:07:00,66.4,58.1,29.76,South,180,0.4,0.4,75,0.00,,,0.00,108,,2013-06-01 13:07:00,
2013-06-01 15:12:00,66.7,58.1,29.73,South,180,0.0,0.0,74,0.00,,,0.00,98,,2013-06-01 13:12:00,
2013-06-01 15:17:00,66.9,58.3,29.73,South,180,0.0,0.0,74,0.00,,,0.00,107,,2013-06-01 13:17:00,
2013-06-01 15:22:00,66.7,58.1,29.73,SSE,157,0.4,1.7,74,0.00,,,0.00,106,,2013-06-01 13:22:00,
2013-06-01 15:27:00,66.0,57.7,29.73,South,180,0.4,2.2,75,0.00,,,0.00,94,,2013-06-01 13:27:00,
2013-06-01 15:32:00,65.7,57.4,29.73,South,180,0.4,2.2,75,0.00,,,0.00,99,,2013-06-01 13:32:00,
2013-06-01 15:37:00,65.3,57.4,29.73,South,180,0.8,3.1,76,0.00,,,0.00,75,,2013-06-01 13:37:00,
2013-06-01 15:42:00,65.5,57.6,29.73,South,180,0.8,3.1,76,0.00,,,0.00,43,,2013-06-01 13:42:00,
2013-06-01 15:47:00,65.8,57.9,29.73,SW,225,0.0,0.0,76,0.00,,,0.00,44,,2013-06-01 13:47:00,
2013-06-01 15:52:00,65.5,57.6,29.73,South,180,0.0,0.4,76,0.00,,,0.00,55,,2013-06-01 13:52:00,
2013-06-01 15:57:00,65.5,57.6,29.73,South,180,0.4,0.0,76,0.00,,,0.00,65,,2013-06-01 13:57:00,
2013-06-01 16:02:00,65.7,57.7,29.73,South,180,0.8,2.2,76,0.00,,,0.00,57,,2013-06-01 14:02:00,
2013-06-01 16:07:00,65.7,57.7,29.73,SSE,157,0.0,0.4,76,0.00,,,0.00,86,,2013-06-01 14:07:00,
2013-06-01 16:12:00,66.4,58.5,29.73,SSW,202,0.4,1.7,76,0.00,,,0.00,111,,2013-06-01 14:12:00,
2013-06-01 16:17:00,65.7,57.7,29.73,SSW,202,0.4,0.8,76,0.00,,,0.00,99,,2013-06-01 14:17:00,
2013-06-01 16:22:00,65.1,57.2,29.73,WSW,247,0.8,1.7,76,0.00,,,0.00,86,,2013-06-01 14:22:00,
2013-06-01 16:27:00,64.9,57.0,29.73,SSE,157,1.3,1.7,76,0.00,,,0.00,56,,2013-06-01 14:27:00,
2013-06-01 16:32:00,64.6,56.8,29.73,SW,225,0.8,0.8,76,0.00,,,0.00,64,,2013-06-01 14:32:00,
2013-06-01 16:37:00,63.7,56.3,29.73,SSE,157,1.7,2.2,77,0.00,,,0.00,35,,2013-06-01 14:37:00,
2013-06-01 16:42:00,63.1,56.1,29.73,SE,135,1.7,1.7,78,0.00,,,0.00,21,,2013-06-01 14:42:00,
2013-06-01 16:47:00,62.8,55.8,29.73,SW,225,0.4,0.0,78,0.00,,,0.00,20,,2013-06-01 14:47:00,
2013-06-01 16:52:00,62.1,55.0,29.73,South,180,1.3,2.6,78,0.00,,,0.00,35,,2013-06-01 14:52:00,
2013-06-01 16:57:00,62.2,55.6,29.73,South,180,1.3,1.7,79,0.00,,,0.00,45,,2013-06-01 14:57:00,
2013-06-01 17:02:00,62.2,55.6,29.73,SW,225,0.4,1.3,79,0.00,,,0.00,65,,2013-06-01 15:02:00,
2013-06-01 17:07:00,62.1,55.4,29.73,South,180,0.8,1.3,79,0.00,,,0.00,45,,2013-06-01 15:07:00,
2013-06-01 17:12:00,62.4,55.8,29.73,SW,225,0.0,0.0,79,0.00,,,0.00,37,,2013-06-01 15:12:00,
2013-06-01 17:17:00,61.5,54.9,29.73,South,180,0.8,1.7,79,0.00,,,0.00,36,,2013-06-01 15:17:00,
2013-06-01 17:22:00,61.5,54.9,29.73,South,180,1.7,3.5,79,0.00,,,0.00,30,,2013-06-01 15:22:00,
2013-06-01 17:27:00,61.9,55.2,29.73,South,180,1.7,1.7,79,0.00,,,0.00,34,,2013-06-01 15:27:00,
2013-06-01 17:32:00,62.1,55.4,29.73,South,180,1.7,1.7,79,0.00,,,0.00,34,,2013-06-01 15:32:00,
2013-06-01 17:37:00,62.1,55.4,29.73,South,180,1.7,1.7,79,0.00,,,0.00,34,,2013-06-01 15:37:00,
2013-06-01 17:42:00,61.5,54.9,29.73,South,180,0.0,0.0,79,0.00,,,0.00,34,,2013-06-01 15:42:00,
2013-06-01 17:47:00,61.9,55.2,29.73,South,180,0.0,0.0,79,0.00,,,0.00,,,2013-06-01 15:47:00,
2013-06-01 17:52:00,61.3,54.7,29.73,South,180,0.4,0.4,79,0.00,,,0.00,,,2013-06-01 15:52:00,
2013-06-01 17:57:00,60.6,54.0,29.73,South,180,0.0,0.0,79,0.00,,,0.00,,,2013-06-01 15:57:00,
2013-06-01 18:02:00,60.3,54.0,29.73,SW,225,0.0,0.0,80,0.02,,,0.02,,,2013-06-01 16:02:00,
2013-06-01 18:07:00,59.4,53.1,29.73,West,270,0.0,0.0,80,0.00,,,0.02,,,2013-06-01 16:07:00,
2013-06-01 18:12:00,59.5,53.2,29.73,West,270,0.0,0.0,80,0.02,,,0.04,,,2013-06-01 16:12:00,
2013-06-01 18:17:00,58.8,52.9,29.73,WNW,292,0.0,0.8,81,0.02,,,0.04,,,2013-06-01 16:17:00,
2013-06-01 18:22:00,57.9,51.6,29.73,ENE,67,1.3,2.6,80,0.04,,,0.06,,,2013-06-01 16:22:00,
2013-06-01 18:27:00,58.6,52.7,29.73,NNE,22,1.3,2.6,81,0.04,,,0.06,,,2013-06-01 16:27:00,
2013-06-01 18:32:00,58.8,52.9,29.73,ENE,67,1.3,1.3,81,0.04,,,0.06,82,,2013-06-01 16:32:00,
2013-06-01 18:37:00,58.8,52.9,29.73,NNW,337,2.2,3.5,81,0.04,,,0.06,82,,2013-06-01 16:37:00,
2013-06-01 18:42:00,61.0,54.7,29.73,North,0,1.3,1.3,80,0.04,,,0.06,82,,2013-06-01 16:42:00,
2013-06-01 18:47:00,61.0,54.7,29.73,ENE,67,0.4,1.3,80,0.04,,,0.06,70,,2013-06-01 16:47:00,
2013-06-01 18:52:00,61.0,54.3,29.73,East,90,1.7,3.1,79,0.04,,,0.06,64,,2013-06-01 16:52:00,
2013-06-01 18:57:00,61.0,54.3,29.73,ENE,67,1.7,2.6,79,0.04,,,0.06,62,,2013-06-01 16:57:00,
2013-06-01 19:02:00,61.2,54.5,29.73,ENE,67,1.3,4.0,79,0.04,,,0.06,44,,2013-06-01 17:02:00,
2013-06-01 19:07:00,61.3,54.7,29.73,NE,45,2.2,2.2,79,0.00,,,0.06,44,,2013-06-01 17:07:00,
2013-06-01 19:12:00,61.9,55.2,29.73,East,90,1.3,1.3,79,0.00,,,0.06,55,,2013-06-01 17:12:00,
2013-06-01 19:17:00,61.2,54.5,29.73,NE,45,1.3,0.0,79,0.00,,,0.06,41,,2013-06-01 17:17:00,
2013-06-01 19:22:00,61.2,54.5,29.73,NE,45,0.8,0.8,79,0.00,,,0.06,35,,2013-06-01 17:22:00,
2013-06-01 19:27:00,62.1,55.4,29.73,ESE,112,1.7,1.7,79,0.00,,,0.06,31,,2013-06-01 17:27:00,
2013-06-01 19:32:00,61.5,54.9,29.73,SSW,202,2.2,2.6,79,0.00,,,0.06,17,,2013-06-01 17:32:00,
2013-06-01 19:37:00,61.5,54.9,29.73,SSE,157,0.8,1.3,79,0.00,,,0.06,25,,2013-06-01 17:37:00,
2013-06-01 19:42:00,61.5,55.2,29.73,South,180,0.8,2.6,80,0.00,,,0.06,35,,2013-06-01 17:42:00,
2013-06-01 19:47:00,61.2,54.9,29.73,South,180,0.4,0.0,80,0.00,,,0.06,44,,2013-06-01 17:47:00,
2013-06-01 19:52:00,61.2,54.9,29.73,South,180,0.0,0.4,80,0.00,,,0.06,39,,2013-06-01 17:52:00,
2013-06-01 19:57:00,61.0,54.7,29.73,South,180,0.4,1.3,80,0.00,,,0.06,18,,2013-06-01 17:57:00,
2013-06-01 20:02:00,60.8,54.5,29.76,South,180,0.0,0.0,80,0.00,,,0.06,8,,2013-06-01 18:02:00,
2013-06-01 20:07:00,60.8,54.5,29.76,South,180,0.0,1.3,80,0.00,,,0.06,9,,2013-06-01 18:07:00,
2013-06-01 20:12:00,61.0,54.7,29.76,West,270,0.0,0.0,80,0.00,,,0.06,7,,2013-06-01 18:12:00,
2013-06-01 20:17:00,60.4,54.1,29.76,West,270,0.0,0.0,80,0.00,,,0.06,6,,2013-06-01 18:17:00,
2013-06-01 20:22:00,60.4,54.1,29.76,West,270,0.0,0.0,80,0.00,,,0.06,3,,2013-06-01 18:22:00,
2013-06-01 20:27:00,60.4,54.1,29.76,West,270,0.0,0.0,80,0.00,,,0.06,2,,2013-06-01 18:27:00,
2013-06-01 20:32:00,60.4,54.1,29.76,West,270,0.0,0.0,80,0.00,,,0.06,2,,2013-06-01 18:32:00,
2013-06-01 20:37:00,60.4,54.1,29.76,West,270,0.0,0.0,80,0.00,,,0.06,1,,2013-06-01 18:37:00,
2013-06-01 20:42:00,60.1,54.1,29.76,West,270,0.0,0.0,81,0.00,,,0.06,1,,2013-06-01 18:42:00,
2013-06-01 20:47:00,60.1,54.1,29.76,WSW,247,0.0,0.0,81,0.00,,,0.06,1,,2013-06-01 18:47:00,
2013-06-01 20:52:00,60.1,54.1,29.76,South,180,0.0,0.0,81,0.00,,,0.06,1,,2013-06-01 18:52:00,
2013-06-01 20:57:00,60.1,54.1,29.76,South,180,0.0,0.0,81,0.00,,,0.06,0,,2013-06-01 18:57:00,
2013-06-01 21:02:00,60.1,54.1,29.76,South,180,0.0,0.0,81,0.00,,,0.06,0,,2013-06-01 19:02:00,
2013-06-01 21:07:00,60.1,54.1,29.76,South,180,0.0,0.0,81,0.00,,,0.06,3,,2013-06-01 19:07:00,
2013-06-01 21:12:00,59.4,53.4,29.76,West,270,0.0,0.0,81,0.00,,,0.06,0,,2013-06-01 19:12:00,
2013-06-01 21:17:00,58.8,52.9,29.76,West,270,0.0,0.0,81,0.00,,,0.06,0,,2013-06-01 19:17:00,
2013-06-01 21:22:00,58.8,53.2,29.76,West,270,0.0,0.0,82,0.00,,,0.06,0,,2013-06-01 19:22:00,
2013-06-01 21:27:00,58.8,53.2,29.76,WNW,292,0.0,0.0,82,0.00,,,0.06,0,,2013-06-01 19:27:00,
2013-06-01 21:32:00,58.8,53.2,29.76,NW,315,0.0,0.0,82,0.00,,,0.06,0,,2013-06-01 19:32:00,
2013-06-01 21:37:00,58.8,53.2,29.76,NW,315,0.0,0.0,82,0.00,,,0.06,0,,2013-06-01 19:37:00,
2013-06-01 21:42:00,58.8,53.2,29.76,NNW,337,0.0,0.8,82,0.00,,,0.06,0,,2013-06-01 19:42:00,
2013-06-01 21:47:00,58.8,53.2,29.76,North,0,0.4,1.3,82,0.00,,,0.06,0,,2013-06-01 19:47:00,
2013-06-01 21:52:00,58.8,53.2,29.76,NNW,337,1.3,1.3,82,0.00,,,0.06,0,,2013-06-01 19:52:00,
2013-06-01 21:57:00,58.8,53.2,29.76,NNW,337,1.3,1.7,82,0.00,,,0.06,0,,2013-06-01 19:57:00,
2013-06-01 22:02:00,58.8,53.2,29.79,North,0,1.7,3.5,82,0.00,,,0.06,0,,2013-06-01 20:02:00,
2013-06-01 22:07:00,57.7,52.5,29.79,North,0,0.8,1.7,83,0.00,,,0.06,0,,2013-06-01 20:07:00,
2013-06-01 22:12:00,57.7,52.5,29.79,North,0,1.7,2.2,83,0.00,,,0.06,0,,2013-06-01 20:12:00,
2013-06-01 22:17:00,57.7,52.5,29.79,NNW,337,1.7,1.7,83,0.00,,,0.06,0,,2013-06-01 20:17:00,
2013-06-01 22:22:00,57.7,52.5,29.79,NNW,337,2.6,2.6,83,0.00,,,0.06,0,,2013-06-01 20:22:00,
2013-06-01 22:27:00,57.7,52.5,29.79,NW,315,3.5,4.0,83,0.00,,,0.06,0,,2013-06-01 20:27:00,
2013-06-01 22:32:00,57.7,52.5,29.79,NW,315,2.6,3.1,83,0.00,,,0.06,0,,2013-06-01 20:32:00,
2013-06-01 22:37:00,57.7,52.5,29.79,NW,315,4.0,4.9,83,0.00,,,0.06,0,,2013-06-01 20:37:00,
2013-06-01 22:42:00,57.7,52.5,29.79,NNW,337,3.1,3.5,83,0.00,,,0.06,0,,2013-06-01 20:42:00,
2013-06-01 22:47:00,57.7,52.5,29.79,North,0,0.4,0.0,83,0.00,,,0.06,0,,2013-06-01 20:47:00,
2013-06-01 22:52:00,57.7,52.5,29.76,North,0,0.0,0.0,83,0.00,,,0.06,0,,2013-06-01 20:52:00,
2013-06-01 22:57:00,57.7,52.5,29.76,North,0,0.0,0.0,83,0.00,,,0.06,0,,2013-06-01 20:57:00,
2013-06-01 23:02:00,57.7,52.5,29.76,North,0,0.0,0.0,83,0.00,,,0.06,0,,2013-06-01 21:02:00,
2013-06-01 23:07:00,57.2,51.3,29.76,North,0,0.0,0.0,81,0.00,,,0.06,0,,2013-06-01 21:07:00,
2013-06-01 23:12:00,57.0,51.1,29.76,North,0,0.0,0.0,81,0.00,,,0.06,0,,2013-06-01 21:12:00,
2013-06-01 23:17:00,56.8,52.0,29.76,North,0,1.3,1.7,84,0.00,,,0.06,0,,2013-06-01 21:17:00,
2013-06-01 23:22:00,56.8,52.0,29.76,North,0,0.4,1.7,84,0.00,,,0.06,0,,2013-06-01 21:22:00,
2013-06-01 23:27:00,56.8,52.0,29.76,North,0,1.7,2.6,84,0.00,,,0.06,0,,2013-06-01 21:27:00,
2013-06-01 23:32:00,56.8,52.0,29.79,NW,315,2.6,3.1,84,0.00,,,0.06,0,,2013-06-01 21:32:00,
2013-06-01 23:37:00,56.8,52.0,29.79,NW,315,3.1,3.5,84,0.00,,,0.06,0,,2013-06-01 21:37:00,
2013-06-01 23:42:00,56.8,52.0,29.79,NW,315,1.7,0.0,84,0.00,,,0.06,0,,2013-06-01 21:42:00,
2013-06-01 23:47:00,56.8,52.0,29.79,North,0,0.0,2.2,84,0.00,,,0.06,0,,2013-06-01 21:47:00,
2013-06-01 23:52:00,56.8,52.0,29.76,North,0,1.3,1.3,84,0.00,,,0.06,0,,2013-06-01 21:52:00,
2013-06-01 23:57:00,56.8,52.0,29.76,North,0,0.0,0.0,84,0.00,,,0.06,0,,2013-06-01 21:57:00,